Lexington Weather

Lexington, Massachusetts, USA

25°F
2/26/2021 7:43am 
  • Lexington Conditions: Clear
  • Temperature: 25.0°F / -3.9°C 
  • Dew Point: 15.6°FIncreased 0.3°Fsince last hour.
  • Relative Humidity: 67%Increased 1.0% since last hour.
  • Wind: Calm, 10-min avg: Calm, gust: 1 mph
  • Barometer: 30.35 inRising 0.03  inHg/hr Rising Slowly
  • Visibility: 10 miles
  • Snow Today: 0.0 in
  •   

Regional Weather Roundup
for Boston / Norton, MA

        
000
ASUS41 KBOX 220004
RWRBOX

REGIONAL WEATHER ROUNDUP
NATIONAL WEATHER SERVICE BOSTON/NORTON MA
700 PM EST SUN FEB 21 2021

NOTE:  "FAIR" INDICATES FEW OR NO CLOUDS BELOW 12,000 FEET WITH NO 
SIGNIFICANT WEATHER AND/OR OBSTRUCTIONS TO VISIBILITY.

MAZALL-220100-
EASTERN MASSACHUSETTS
  
CITY           SKY/WX    TMP DP  RH WIND       PRES   REMARKS
BOSTON         CLEAR     30  10  43 N3        30.46R                  
6HR MIN TEMP:  29; 6HR MAX TEMP:  33;                                

BEVERLY        CLEAR     27  10  49 CALM      30.44R                  
LAWRENCE       CLEAR     24  10  55 CALM      30.46R                  
BEDFORD        CLEAR     24  10  55 CALM      30.44R                  
BLUE HILL        N/A     25   9  50 W7        30.41R WCI  17          
NORWOOD        CLEAR     24  11  57 CALM      30.46R                  
MARSHFIELD     CLEAR     25  18  74 CALM      30.45S                  
PLYMOUTH       CLEAR     21  16  81 CALM      30.45R                  
TAUNTON        CLEAR     23  16  74 CALM      30.45R                  
NEW BEDFORD    CLEAR     24  13  62 CALM      30.46R                  
$$

MAZALL-220100-
CAPE COD AND THE ISLANDS
  
CITY           SKY/WX    TMP DP  RH WIND       PRES   REMARKS
FALMOUTH       CLEAR     21  14  73 CALM      30.46R                  
HYANNIS        CLEAR     21  13  71 CALM      30.45R                  
CHATHAM        CLEAR     23  15  71 CALM      30.48R                  
PROVINCETOWN   CLEAR     29  16  58 W7        30.46S WCI  22          
NANTUCKET      CLEAR     24  15  68 SW3       30.48R                  
MARTHAS VNYRD  CLEAR     26  15  63 SW3       30.47R                  
$$
 
MAZALL-220100-
CENTRAL AND WESTERN MASSACHUSETTS
  
CITY           SKY/WX    TMP DP  RH WIND       PRES   REMARKS
WORCESTER      CLEAR     27   5  39 W6        30.40R WCI  20          
6HR MIN TEMP:  25; 6HR MAX TEMP:  32;                                

FITCHBURG      CLEAR     23  10  57 CALM      30.45R                  
ORANGE         CLEAR     19   8  62 W3        30.46R                  
SPRINGFIELD    NOT AVBL                                               
WESTFIELD      CLEAR     23   8  52 CALM      30.46R                  
NORTH ADAMS    CLEAR     15   7  70 CALM      30.44R                  
PITTSFIELD     CLEAR     18   7  62 SW5       30.40R WCI  11          
$$
 
RIZALL-220100-
RHODE ISLAND
  
CITY           SKY/WX    TMP DP  RH WIND       PRES   REMARKS
PROVIDENCE     CLEAR     27   9  46 CALM      30.47R                  
6HR MIN TEMP:  27; 6HR MAX TEMP:  35;                                

NEWPORT        CLEAR     24  14  65 CALM      30.46R                  
BLOCK ISLAND   CLEAR     29  11  47 NW3       30.49R                  
SMITHFIELD     CLEAR     24   9  52 CALM      30.44R                  
WESTERLY       CLEAR     23  10  57 CALM      30.48R                  
$$
 
CTZALL-220100-
CONNECTICUT
  
CITY           SKY/WX    TMP DP  RH WIND       PRES   REMARKS
BRADLEY INTL   CLEAR     28   8  43 W6        30.47R WCI  22          
6HR MIN TEMP:  27; 6HR MAX TEMP:  35;                                

HARTFORD       CLEAR     31   8  38 W5        30.49R WCI  26          
BRIDGEPORT     CLEAR     30  12  47 CALM      30.49R                  
DANBURY        CLEAR     24  10  55 CALM      30.48R                  
GROTON         CLEAR     26  11  52 CALM      30.48R                  
NEW HAVEN      CLEAR     25  11  55 CALM      30.49R                  
CHESTER        FAIR      28   7  40 CALM      30.47R                  
MERIDEN        CLEAR     23   9  55 CALM      30.49R                  
WILLIMANTIC    CLEAR     24  11  57 CALM      30.47R                  
OXFORD         CLEAR     23   8  52 N3        30.46R                  
$$

MEZ002-015-021-024-NHZ003-005-008-011-012-014-VTZ005-008-220100-
NORTHERN NEW ENGLAND
  
CITY           SKY/WX    TMP DP  RH WIND       PRES   REMARKS
PORTLAND ME    CLEAR     28  10  46 SW6       30.42R WCI  22          
6HR MIN TEMP:  27; 6HR MAX TEMP:  33;                                

BANGOR ME      CLEAR     28   6  39 W5        30.36R WCI  23          
CONCORD NH     CLEAR     23   7  50 W3        30.43R                  
MANCHESTER NH  CLEAR     26  11  52 CALM      30.42R                  
NASHUA NH      CLEAR     23  12  62 CALM      30.45R                  
PORTSMOUTH NH  CLEAR     28   5  38 W6        30.42S WCI  21          
JAFFREY NH     CLEAR     16   6  65 CALM      30.40R                  
KEENE NH       CLEAR     18   8  65 CALM      30.45R                  
BURLINGTON VT  CLEAR     20   8  60 CALM      30.43S                  
MT. WASHINGTON PTCLDY     0 -11  60 W35         N/A  WCI -28          
$$

NYZ052-076-220100-
EASTERN NEW YORK
  
CITY           SKY/WX    TMP DP  RH WIND       PRES   REMARKS
ALBANY         CLEAR     25   8  48 S3        30.47R                  
6HR MIN TEMP:  25; 6HR MAX TEMP:  30;                                

NEW YORK CITY  PTCLDY    36  10  34 W5        30.49R                  
6HR MIN TEMP:  35; 6HR MAX TEMP:  38;                                

$$
 
ANZALL-220100-
MARINE OBSERVATIONS
  
STATION/POSITION TIME  TEMP    WIND        PRES    VSBY  WAVE
                       AIR SEA DIR/SP/G                  HT/PER
                 (UTC) (F)     (DEG/KT/KT) (MB)    (MI)  (FT/S)
BOSTON BUOY      2340   33 39  310/  8/ 12 1031.6R
BUZZARDS BAY     2300          220/ 10/ 11 1032.3R
NANTUCKET SOUND  2340      36   CALM  /  2   N/A
MASS BAY-STELLWA 2304   34     300/ 12/ 14 1030.1R  1 7/8  4/11
ISLE OF SHOALS   2300   32     280/ 16/ 17 1029.9R
S OF BLOCK IS    2326      38                N/A           3/11
$$

......................KEY.........................
  SKY/WX - SKY CONDITION/PRESENT WEATHER
  TMP    - TEMPERATURE IN FAHRENHEIT
  DWPT   - DEWPOINT IN FAHRENHEIT
  RH     - RELATIVE HUMIDITY IN PERCENT
  WIND   - DIRECTION AND SPEED IN MPH
  PRES   - MEAN SEA LEVEL PRESSURE IN INCHES OF HG
  WCI    - WIND CHILL INDEX
  VSB    - VISIBILITY IN MILES
  HX     - HEAT INDEX
  TC     - TEMPERATURE IN CELSIUS
  VRB    - VARIABLE WIND DIRECTION
  N/A    - NOT AVAILABLE
  
      

Other recent Regional Weather Roundups

Fri Feb 26, 7:04am

Fri Feb 26, 6:04am

Fri Feb 26, 5:04am

Fri Feb 26, 4:04am

Fri Feb 26, 3:04am

Fri Feb 26, 2:04am

Fri Feb 26, 1:04am

Fri Feb 26, 12:04am

Thu Feb 25, 11:04pm

Thu Feb 25, 10:04pm

Thu Feb 25, 9:04pm

Thu Feb 25, 8:05pm

Thu Feb 25, 7:05pm

Thu Feb 25, 6:04pm

Thu Feb 25, 5:04pm

Thu Feb 25, 4:05pm

Thu Feb 25, 3:05pm

Thu Feb 25, 2:04pm

Thu Feb 25, 1:04pm

Thu Feb 25, 12:05pm

Thu Feb 25, 11:04am

Thu Feb 25, 10:04am

Thu Feb 25, 9:04am

Thu Feb 25, 8:04am

Thu Feb 25, 7:04am

Thu Feb 25, 6:04am

Thu Feb 25, 5:04am

Thu Feb 25, 4:04am

Thu Feb 25, 3:04am

Thu Feb 25, 2:04am

Thu Feb 25, 1:04am

Thu Feb 25, 12:04am

Wed Feb 24, 11:04pm

Wed Feb 24, 10:05pm

Wed Feb 24, 9:04pm

Wed Feb 24, 8:04pm

Wed Feb 24, 7:04pm

Wed Feb 24, 6:04pm

Wed Feb 24, 5:04pm

Wed Feb 24, 4:04pm

Wed Feb 24, 3:04pm

Wed Feb 24, 2:05pm

Wed Feb 24, 1:05pm

Wed Feb 24, 12:05pm

Wed Feb 24, 11:04am

Wed Feb 24, 10:04am

Wed Feb 24, 9:04am

Wed Feb 24, 8:04am

Wed Feb 24, 7:04am

Wed Feb 24, 6:04am

Wed Feb 24, 5:04am

Wed Feb 24, 4:04am

Wed Feb 24, 3:04am

Wed Feb 24, 2:04am

Wed Feb 24, 1:04am

Wed Feb 24, 12:04am

Tue Feb 23, 11:04pm

Tue Feb 23, 10:04pm

Tue Feb 23, 9:04pm

Tue Feb 23, 8:05pm

Tue Feb 23, 7:04pm

Tue Feb 23, 6:04pm

Tue Feb 23, 5:04pm

Tue Feb 23, 4:05pm

Tue Feb 23, 3:04pm

Tue Feb 23, 2:04pm

Tue Feb 23, 1:04pm

Tue Feb 23, 12:04pm

Tue Feb 23, 11:04am

Tue Feb 23, 10:04am

Tue Feb 23, 9:04am

Tue Feb 23, 7:04am

Tue Feb 23, 6:04am

Tue Feb 23, 5:04am

Tue Feb 23, 4:04am

Tue Feb 23, 3:04am

Tue Feb 23, 2:04am

Tue Feb 23, 1:04am

Tue Feb 23, 12:04am

Mon Feb 22, 11:04pm

Mon Feb 22, 10:04pm

Mon Feb 22, 9:04pm

Mon Feb 22, 8:04pm

Mon Feb 22, 7:04pm

Mon Feb 22, 6:04pm

Mon Feb 22, 5:04pm

Mon Feb 22, 4:05pm

Mon Feb 22, 3:04pm

Mon Feb 22, 2:05pm

Mon Feb 22, 1:04pm

Mon Feb 22, 12:05pm

Mon Feb 22, 11:04am

Mon Feb 22, 10:04am

Mon Feb 22, 9:05am

Mon Feb 22, 8:04am

Mon Feb 22, 7:04am

Mon Feb 22, 6:04am

Mon Feb 22, 5:04am

Mon Feb 22, 4:04am

Mon Feb 22, 3:04am

Mon Feb 22, 2:04am

Mon Feb 22, 1:04am

Mon Feb 22, 12:04am

Sun Feb 21, 11:04pm

Sun Feb 21, 10:05pm

Sun Feb 21, 9:04pm

Sun Feb 21, 8:04pm

Sun Feb 21, 6:04pm

Sun Feb 21, 5:04pm

Sun Feb 21, 4:05pm

Sun Feb 21, 3:04pm

Sun Feb 21, 2:04pm

Sun Feb 21, 1:05pm

Sun Feb 21, 12:05pm

Sun Feb 21, 11:04am

Sun Feb 21, 10:05am

Sun Feb 21, 9:04am

Sun Feb 21, 8:04am

Sun Feb 21, 7:04am

Sun Feb 21, 6:04am

Sun Feb 21, 5:04am

Sun Feb 21, 4:04am

Sun Feb 21, 3:04am

Sun Feb 21, 2:04am

Sun Feb 21, 1:04am

Sun Feb 21, 12:04am

Sat Feb 20, 11:04pm

Sat Feb 20, 10:04pm

Sat Feb 20, 9:04pm

Sat Feb 20, 8:04pm

Sat Feb 20, 7:04pm

Sat Feb 20, 6:04pm

Sat Feb 20, 5:04pm

Sat Feb 20, 4:05pm

Sat Feb 20, 3:04pm

Sat Feb 20, 2:04pm

Sat Feb 20, 1:05pm

Sat Feb 20, 12:05pm

Sat Feb 20, 11:04am

Sat Feb 20, 10:05am

Sat Feb 20, 9:04am

Sat Feb 20, 8:04am

Sat Feb 20, 7:04am

Sat Feb 20, 6:04am

Sat Feb 20, 5:04am

Sat Feb 20, 4:04am

Sat Feb 20, 3:04am

Sat Feb 20, 2:04am

Sat Feb 20, 1:04am

Sat Feb 20, 12:04am

Fri Feb 19, 11:04pm

Fri Feb 19, 10:05pm

Fri Feb 19, 9:04pm

Fri Feb 19, 8:04pm

Fri Feb 19, 7:04pm

Fri Feb 19, 6:04pm

Fri Feb 19, 5:04pm

Fri Feb 19, 4:05pm

Fri Feb 19, 3:04pm

Fri Feb 19, 2:04pm

Fri Feb 19, 1:05pm

Fri Feb 19, 12:05pm

Fri Feb 19, 11:04am

Fri Feb 19, 10:04am

Fri Feb 19, 9:04am

Fri Feb 19, 8:04am

Meta data:

ID: a1f7afcc-d398-4036-8a47-f3cea3321d96
Link: https://api.weather.gov/products/a1f7afcc-d398-4036-8a47-f3cea3321d96